Погода в Леушине

Россия / Тверская область     57°16′44″N   37°24′38″E
темп.,
°C
ветер,
м/с
пор.,
м/с
влажн.,
%
обл.,
%
осадки,
мм/ч
давл.,
гПа
погр.,
м
13 апреля, вт
вт1300:00+8юв41181100 0.0 1028373
03:00+6вюв399493 0.0 1027208
06:00+6юв3109690 0.0 1025224
09:00+12ю4107470 0.0 1024430
12:00+17ю5953100 0.0 1023761
15:00+19ю5949100 0.0 10231141
18:00+17ю4954100 0.0 1022288
21:00+12ююв4126845 0.0 1022224
14 апреля, ср
ср1400:00+10ююв3127055 0.0 1022221
03:00+9ююв312735 0.0 1021235
06:00+8ююв3107857 0.0 1020176
09:00+13ю485878 0.0 1020382
12:00+17ю584686 0.0 1019812
15:00+19ю5741100 0.0 10181656
18:00+16ююв3748100 0.0 1017189
21:00+12ююв3864100 0.0 1018119
15 апреля, чт
чт1500:00+10ю226714 0.0 101811
03:00+8в1172100 0.0 101810
06:00+7св3480100 0.0 101965
09:00+10св3480100 0.0 1019248
12:00+13св4561100 0.0 1019612
15:00+15ссв5658100 0.0 10191088
18:00+11ссв61179100 0.0 1020586
21:00+7св51184100 0.0 1021414
16 апреля, пт
пт1600:00+6св5118664 0.0 1022425
03:00+5св5128790 0.0 1022452
06:00+4св5119056 0.0 1023427
09:00+7св697544 0.0 1024562
12:00+10св685370 0.0 1024898
15:00+12св674125 0.0 10251254
18:00+10св584393 0.0 1025946
21:00+6св41260100 0.0 1027331
17 апреля, сб
сб1700:00+4св4126647 0.0 1029347
03:00+3св4107311 0.0 1030259
06:00+2св411750 0.0 1031261
09:00+6св59552 0.0 1032637
12:00+9св67455 0.0 10321460
15:00+9всв67310 0.0 10341502
18:00+8всв47382 0.0 10351107
21:00+4всв38575 0.0 1036140